| time (UTC) | temp F | wind direction | speed MPH | gust MPH | rain 1hr in | rain 24hr in | rain mn in | humidity % | barometer mb |
| 20260508192728 | 76 | 135 | 5.0 | 7.0 | 0.00 | 0.19 | 0.19 | 61 | 1012.3 |
| 20260508192225 | 77 | 132 | 7.0 | 8.0 | 0.00 | 0.19 | 0.19 | 59 | 1012.3 |
| 20260508191723 | 78 | 164 | 4.0 | 5.0 | 0.00 | 0.19 | 0.19 | 58 | 1012.1 |
| 20260508191220 | 77 | 183 | 7.0 | 9.0 | 0.00 | 0.19 | 0.19 | 61 | 1012.5 |
| 20260508190717 | 78 | 165 | 3.0 | 3.0 | 0.00 | 0.19 | 0.19 | 59 | 1012.5 |
| 20260508190213 | 77 | 163 | 6.0 | 8.0 | 0.00 | 0.19 | 0.19 | 58 | 1012.6 |
| 20260508185709 | 77 | 182 | 8.0 | 9.0 | 0.00 | 0.19 | 0.19 | 57 | 1012.5 |
| 20260508185208 | 78 | 177 | 8.0 | 10.0 | 0.00 | 0.19 | 0.19 | 58 | 1012.6 |
| 20260508184705 | 77 | 172 | 7.0 | 8.0 | 0.00 | 0.19 | 0.19 | 60 | 1012.7 |
| 20260508184202 | 77 | 167 | 5.0 | 7.0 | 0.00 | 0.19 | 0.19 | 59 | 1012.7 |
| 20260508183658 | 77 | 119 | 5.0 | 7.0 | 0.00 | 0.19 | 0.19 | 58 | 1012.8 |
| 20260508183154 | 77 | 137 | 7.0 | 8.0 | 0.00 | 0.19 | 0.19 | 56 | 1012.9 |
| 20260508182650 | 76 | 69 | 2.0 | 2.0 | 0.00 | 0.19 | 0.19 | 60 | 1013.0 |
| 20260508182147 | 76 | 118 | 6.0 | 7.0 | 0.00 | 0.19 | 0.19 | 58 | 1013.1 |
| 20260508181642 | 76 | 114 | 8.0 | 10.0 | 0.00 | 0.19 | 0.19 | 64 | 1013.4 |
| 20260508181140 | 76 | 85 | 3.0 | 3.0 | 0.00 | 0.19 | 0.19 | 59 | 1013.5 |
| 20260508180636 | 75 | 120 | 3.0 | 3.0 | 0.00 | 0.19 | 0.19 | 62 | 1013.4 |
| 20260508180133 | 74 | 140 | 3.0 | 3.0 | 0.00 | 0.19 | 0.19 | 66 | 1013.6 |
| 20260508175630 | 73 | 119 | 4.0 | 5.0 | 0.00 | 0.19 | 0.19 | 65 | 1013.6 |
| 20260508175127 | 75 | 190 | 5.0 | 6.0 | 0.00 | 0.19 | 0.19 | 63 | 1013.8 |
| 20260508174624 | 74 | 159 | 3.0 | 3.0 | 0.00 | 0.19 | 0.19 | 64 | 1013.9 |
| 20260508174121 | 74 | 201 | 7.0 | 8.0 | 0.00 | 0.19 | 0.19 | 63 | 1014.1 |
| 20260508173618 | 74 | 141 | 4.0 | 5.0 | 0.00 | 0.19 | 0.19 | 63 | 1014.1 |
| 20260508173114 | 75 | 155 | 5.0 | 5.0 | 0.00 | 0.19 | 0.19 | 63 | 1014.2 |
| 20260508172611 | 74 | 155 | 3.0 | 5.0 | 0.00 | 0.19 | 0.19 | 67 | 1014.5 |
| 20260508172108 | 73 | 181 | 5.0 | 6.0 | 0.00 | 0.19 | 0.19 | 66 | 1014.3 |
| 20260508171604 | 72 | 183 | 5.0 | 6.0 | 0.00 | 0.19 | 0.19 | 63 | 1014.6 |
| 20260508171101 | 73 | 192 | 7.0 | 9.0 | 0.00 | 0.19 | 0.19 | 65 | 1014.7 |
| 20260508170558 | 73 | 204 | 7.0 | 8.0 | 0.00 | 0.19 | 0.19 | 70 | 1014.8 |
| 20260508170055 | 73 | 180 | 4.0 | 5.0 | 0.00 | 0.19 | 0.19 | 68 | 1014.6 |
| 20260508165552 | 73 | 230 | 6.0 | 7.0 | 0.00 | 0.19 | 0.19 | 66 | 1015.0 |
| 20260508165049 | 73 | 198 | 7.0 | 8.0 | 0.00 | 0.19 | 0.19 | 67 | 1015.2 |
| 20260508164546 | 72 | 199 | 3.0 | 6.0 | 0.00 | 0.19 | 0.19 | 65 | 1015.0 |
| 20260508164042 | 72 | 215 | 6.0 | 7.0 | 0.00 | 0.19 | 0.19 | 68 | 1015.2 |
| 20260508163540 | 72 | 152 | 5.0 | 7.0 | 0.00 | 0.19 | 0.19 | 70 | 1015.2 |
| 20260508163037 | 72 | 192 | 5.0 | 6.0 | 0.00 | 0.19 | 0.19 | 70 | 1015.3 |
| 20260508162533 | 71 | 199 | 4.0 | 5.0 | 0.00 | 0.19 | 0.19 | 71 | 1015.1 |
| 20260508162031 | 71 | 196 | 8.0 | 9.0 | 0.00 | 0.19 | 0.19 | 71 | 1015.5 |
| 20260508161527 | 71 | 196 | 6.0 | 7.0 | 0.00 | 0.19 | 0.19 | 69 | 1015.8 |
| 20260508161025 | 71 | 175 | 3.0 | 3.0 | 0.00 | 0.19 | 0.19 | 73 | 1015.5 |
| 20260508160523 | 70 | 139 | 2.0 | 3.0 | 0.00 | 0.19 | 0.19 | 73 | 1015.4 |
| 20260508160020 | 71 | 191 | 9.0 | 11.0 | 0.00 | 0.19 | 0.19 | 72 | 1015.5 |
| 20260508155517 | 70 | 149 | 5.0 | 7.0 | 0.00 | 0.19 | 0.19 | 75 | 1015.4 |
| 20260508155014 | 69 | 135 | 2.0 | 2.0 | 0.00 | 0.19 | 0.19 | 82 | 1015.4 |
| 20260508154511 | 68 | 120 | 3.0 | 3.0 | 0.00 | 0.19 | 0.19 | 82 | 1015.6 |
| 20260508154008 | 68 | 145 | 0.0 | 0.0 | 0.00 | 0.19 | 0.19 | 80 | 1015.9 |
| 20260508153504 | 67 | 128 | 2.0 | 2.0 | 0.00 | 0.19 | 0.19 | 82 | 1015.8 |
| 20260508153000 | 66 | 114 | 4.0 | 5.0 | 0.00 | 0.19 | 0.19 | 84 | 1015.5 |
| 20260508152458 | 66 | 124 | 4.0 | 6.0 | 0.00 | 0.19 | 0.19 | 83 | 1015.5 |
| 20260508151954 | 66 | 80 | 5.0 | 5.0 | 0.00 | 0.19 | 0.19 | 83 | 1015.4 |
| 20260508151450 | 66 | 83 | 1.0 | 2.0 | 0.00 | 0.19 | 0.19 | 84 | 1015.5 |
| 20260508150947 | 65 | 101 | 4.0 | 6.0 | 0.00 | 0.19 | 0.19 | 83 | 1015.6 |
| 20260508150444 | 65 | 99 | 4.0 | 5.0 | 0.00 | 0.19 | 0.19 | 83 | 1015.9 |
| 20260508145939 | 65 | 56 | 3.0 | 5.0 | 0.00 | 0.19 | 0.19 | 85 | 1016.0 |
| 20260508145436 | 65 | 100 | 4.0 | 5.0 | 0.00 | 0.19 | 0.19 | 84 | 1015.9 |
| 20260508144933 | 64 | 80 | 3.0 | 3.0 | 0.00 | 0.19 | 0.19 | 86 | 1015.9 |
| 20260508144431 | 64 | 84 | 4.0 | 5.0 | 0.00 | 0.19 | 0.19 | 88 | 1016.0 |
| 20260508143928 | 63 | 88 | 3.0 | 3.0 | 0.00 | 0.19 | 0.19 | 91 | 1016.2 |
| 20260508143426 | 63 | 49 | 2.0 | 2.0 | 0.00 | 0.19 | 0.19 | 91 | 1016.1 |
| 20260508142922 | 64 | 58 | 3.0 | 3.0 | 0.00 | 0.19 | 0.19 | 93 | 1016.5 |
| 20260508142419 | 62 | 64 | 2.0 | 2.0 | 0.00 | 0.19 | 0.19 | 94 | 1016.5 |
| 20260508141915 | 62 | 42 | 2.0 | 2.0 | 0.00 | 0.19 | 0.19 | 94 | 1016.6 |
| 20260508141412 | 62 | 61 | 1.0 | 2.0 | 0.00 | 0.19 | 0.19 | 94 | 1016.5 |
| 20260508140910 | 62 | 86 | 1.0 | 2.0 | 0.00 | 0.19 | 0.19 | 95 | 1016.2 |
| 20260508140406 | 62 | 82 | 0.0 | 0.0 | 0.00 | 0.19 | 0.19 | 95 | 1016.2 |
| 20260508135902 | 62 | 87 | 3.0 | 3.0 | 0.00 | 0.19 | 0.19 | 95 | 1016.0 |
| 20260508135359 | 62 | 95 | 3.0 | 3.0 | 0.00 | 0.19 | 0.19 | 95 | 1016.1 |
| 20260508134855 | 61 | 103 | 3.0 | 3.0 | 0.00 | 0.19 | 0.19 | 96 | 1015.9 |
| 20260508134346 | 61 | 80 | 1.0 | 2.0 | 0.00 | 0.19 | 0.19 | 96 | 1015.9 |
| 20260508133843 | 61 | 98 | 4.0 | 5.0 | 0.00 | 0.19 | 0.19 | 96 | 1016.1 |
| 20260508133341 | 60 | 92 | 2.0 | 2.0 | 0.00 | 0.19 | 0.19 | 96 | 1016.0 |
| 20260508132838 | 60 | 95 | 1.0 | 1.0 | 0.00 | 0.19 | 0.19 | 96 | 1016.1 |
| 20260508132335 | 60 | 98 | 2.0 | 2.0 | 0.00 | 0.19 | 0.19 | 96 | 1016.1 |
| 20260508131832 | 60 | 68 | 1.0 | 1.0 | 0.00 | 0.19 | 0.19 | 96 | 1016.7 |
| 20260508131327 | 60 | 82 | 1.0 | 1.0 | 0.00 | 0.19 | 0.19 | 96 | 1016.3 |
| 20260508130824 | 60 | 103 | 1.0 | 1.0 | 0.00 | 0.19 | 0.19 | 96 | 1016.6 |
| 20260508130321 | 59 | 124 | 0.0 | 0.0 | 0.05 | 0.19 | 0.19 | 96 | 1016.6 |
| 20260508125818 | 59 | 125 | 0.0 | 0.0 | 0.05 | 0.19 | 0.19 | 96 | 1017.0 |
| 20260508125314 | 59 | 144 | 3.0 | 3.0 | 0.07 | 0.18 | 0.18 | 96 | 1016.5 |
| 20260508124812 | 59 | 94 | 1.0 | 1.0 | 0.07 | 0.18 | 0.18 | 96 | 1016.6 |
| 20260508124308 | 59 | 79 | 0.0 | 1.0 | 0.05 | 0.17 | 0.17 | 96 | 1016.7 |
| 20260508123807 | 59 | 117 | 3.0 | 3.0 | 0.05 | 0.17 | 0.17 | 96 | 1016.3 |
| 20260508123305 | 59 | 135 | 4.0 | 5.0 | 0.00 | 0.16 | 0.16 | 96 | 1016.5 |
| 20260508122801 | 59 | 334 | 3.0 | 5.0 | 0.00 | 0.16 | 0.16 | 96 | 1017.2 |
| 20260508122258 | 59 | 64 | 1.0 | 1.0 | 0.00 | 0.16 | 0.16 | 95 | 1016.3 |
| 20260508121755 | 59 | 63 | 1.0 | 1.0 | 0.00 | 0.16 | 0.16 | 95 | 1016.5 |
| 20260508121254 | 59 | 120 | 0.0 | 1.0 | 0.00 | 0.16 | 0.16 | 95 | 1016.6 |
| 20260508120750 | 59 | 120 | 1.0 | 1.0 | 0.00 | 0.16 | 0.16 | 95 | 1016.2 |
| 20260508120248 | 59 | 122 | 1.0 | 1.0 | 0.00 | 0.16 | 0.16 | 95 | 1016.0 |
| 20260508115745 | 59 | 113 | 1.0 | 1.0 | 0.07 | 0.16 | 0.16 | 95 | 1016.2 |
| 20260508115243 | 59 | 142 | 1.0 | 1.0 | 0.07 | 0.16 | 0.16 | 95 | 1016.5 |
| 20260508114738 | 59 | 127 | 1.0 | 1.0 | 0.00 | 0.15 | 0.15 | 95 | 1016.1 |
| 20260508114236 | 59 | 130 | 2.0 | 2.0 | 0.12 | 0.15 | 0.15 | 94 | 1016.1 |
| 20260508113732 | 59 | 121 | 1.0 | 2.0 | 0.12 | 0.15 | 0.15 | 94 | 1016.5 |
| 20260508113231 | 59 | 157 | 1.0 | 1.0 | 0.42 | 0.13 | 0.13 | 94 | 1016.6 |
| 20260508112721 | 59 | 209 | 5.0 | 5.0 | 0.78 | 0.13 | 0.13 | 94 | 1016.6 |
| 20260508112218 | 59 | 99 | 5.0 | 6.0 | 0.35 | 0.06 | 0.06 | 94 | 1016.3 |
| 20260508111715 | 59 | 217 | 5.0 | 6.0 | 0.00 | 0.00 | 0.00 | 94 | 1017.7 |
| 20260508111213 | 59 | 233 | 4.0 | 5.0 | 0.00 | 0.00 | 0.00 | 94 | 1017.4 |
| 20260508110710 | 59 | 73 | 0.0 | 0.0 | 0.00 | 0.00 | 0.00 | 93 | 1016.9 |
| 20260508110207 | 59 | 328 | 4.0 | 5.0 | 0.00 | 0.00 | 0.00 | 93 | 1017.4 |
| 20260508105706 | 59 | 277 | 12.0 | 14.0 | 0.00 | 0.00 | 0.00 | 93 | 1017.5 |
| 20260508105204 | 59 | 292 | 3.0 | 3.0 | 0.00 | 0.00 | 0.00 | 94 | 1016.1 |
| 20260508104701 | 59 | 156 | 2.0 | 2.0 | 0.00 | 0.00 | 0.00 | 94 | 1015.5 |
| 20260508104158 | 59 | 148 | 5.0 | 6.0 | 0.00 | 0.00 | 0.00 | 94 | 1015.2 |
| 20260508103655 | 59 | 144 | 4.0 | 5.0 | 0.00 | 0.00 | 0.00 | 94 | 1015.1 |
| 20260508103152 | 58 | 152 | 3.0 | 5.0 | 0.00 | 0.00 | 0.00 | 94 | 1015.2 |
| 20260508102649 | 58 | 161 | 4.0 | 5.0 | 0.00 | 0.00 | 0.00 | 95 | 1014.8 |
| 20260508102147 | 58 | 131 | 4.0 | 6.0 | 0.00 | 0.00 | 0.00 | 95 | 1014.9 |
| 20260508101644 | 58 | 131 | 4.0 | 5.0 | 0.00 | 0.00 | 0.00 | 95 | 1014.9 |
| 20260508101142 | 57 | 121 | 3.0 | 3.0 | 0.00 | 0.00 | 0.00 | 94 | 1015.2 |
| 20260508100639 | 58 | 97 | 3.0 | 3.0 | 0.00 | 0.00 | 0.00 | 93 | 1015.5 |
| 20260508100137 | 58 | 55 | 0.0 | 1.0 | 0.00 | 0.00 | 0.00 | 93 | 1015.6 |
| 20260508095633 | 58 | 70 | 1.0 | 1.0 | 0.00 | 0.00 | 0.00 | 93 | 1015.5 |
| 20260508095130 | 58 | 105 | 0.0 | 0.0 | 0.00 | 0.00 | 0.00 | 93 | 1015.9 |
| 20260508094627 | 59 | 106 | 0.0 | 1.0 | 0.00 | 0.00 | 0.00 | 92 | 1015.8 |
| 20260508094124 | 59 | 311 | 1.0 | 1.0 | 0.00 | 0.00 | 0.00 | 92 | 1015.7 |
| 20260508093621 | 59 | 311 | 0.0 | 0.0 | 0.00 | 0.00 | 0.00 | 92 | 1015.7 |
| 20260508093119 | 59 | 298 | 3.0 | 3.0 | 0.00 | 0.00 | 0.00 | 92 | 1016.3 |
| 20260508092616 | 59 | 191 | 2.0 | 2.0 | 0.00 | 0.00 | 0.00 | 92 | 1015.8 |
| 20260508092114 | 59 | 119 | 3.0 | 3.0 | 0.00 | 0.00 | 0.00 | 92 | 1015.2 |
| 20260508091611 | 59 | 105 | 1.0 | 2.0 | 0.00 | 0.00 | 0.00 | 92 | 1015.3 |
| 20260508091108 | 59 | 94 | 3.0 | 3.0 | 0.00 | 0.00 | 0.00 | 92 | 1015.2 |
| 20260508090606 | 59 | 149 | 3.0 | 3.0 | 0.00 | 0.00 | 0.00 | 92 | 1015.7 |
| 20260508090103 | 59 | 168 | 3.0 | 3.0 | 0.00 | 0.00 | 0.00 | 93 | 1016.1 |
| 20260508085559 | 59 | 149 | 2.0 | 3.0 | 0.00 | 0.00 | 0.00 | 93 | 1015.9 |
| 20260508085057 | 59 | 177 | 5.0 | 6.0 | 0.00 | 0.00 | 0.00 | 93 | 1015.8 |
| 20260508084553 | 59 | 134 | 3.0 | 5.0 | 0.00 | 0.00 | 0.00 | 94 | 1016.1 |
| 20260508084050 | 59 | 207 | 3.0 | 3.0 | 0.00 | 0.00 | 0.00 | 94 | 1016.5 |
| 20260508083547 | 59 | 205 | 3.0 | 3.0 | 0.00 | 0.00 | 0.00 | 95 | 1016.5 |
| 20260508083044 | 59 | 232 | 4.0 | 5.0 | 0.00 | 0.00 | 0.00 | 95 | 1016.9 |
| 20260508082540 | 59 | 236 | 3.0 | 5.0 | 0.00 | 0.00 | 0.00 | 95 | 1016.8 |
| 20260508082037 | 58 | 191 | 2.0 | 2.0 | 0.00 | 0.00 | 0.00 | 95 | 1016.8 |
| 20260508081535 | 58 | 54 | 0.0 | 0.0 | 0.00 | 0.00 | 0.00 | 95 | 1016.5 |
| 20260508081031 | 58 | 52 | 1.0 | 1.0 | 0.00 | 0.00 | 0.00 | 95 | 1016.5 |
| 20260508080529 | 57 | 71 | 1.0 | 1.0 | 0.00 | 0.00 | 0.00 | 95 | 1016.7 |
| 20260508080026 | 57 | 71 | 0.0 | 0.0 | 0.00 | 0.00 | 0.00 | 95 | 1016.6 |
| 20260508075522 | 57 | 71 | 0.0 | 0.0 | 0.00 | 0.00 | 0.00 | 95 | 1016.6 |
| 20260508075020 | 56 | 71 | 0.0 | 1.0 | 0.00 | 0.00 | 0.00 | 95 | 1016.7 |
| 20260508074518 | 56 | 71 | 0.0 | 1.0 | 0.00 | 0.00 | 0.00 | 94 | 1016.5 |
| 20260508074014 | 57 | 71 | 1.0 | 1.0 | 0.00 | 0.00 | 0.00 | 94 | 1016.1 |
| 20260508073511 | 57 | 72 | 1.0 | 1.0 | 0.00 | 0.00 | 0.00 | 94 | 1016.2 |
| 20260508073009 | 57 | 72 | 1.0 | 1.0 | 0.00 | 0.00 | 0.00 | 95 | 1016.6 |
| 20260508072504 | 57 | 71 | 1.0 | 1.0 | 0.00 | 0.00 | 0.00 | 94 | 1016.8 |
| 20260508072002 | 57 | 71 | 1.0 | 1.0 | 0.00 | 0.00 | 0.00 | 94 | 1016.8 |
| 20260508071500 | 57 | 71 | 0.0 | 1.0 | 0.00 | 0.00 | 0.00 | 93 | 1017.0 |
| 20260508070957 | 57 | 71 | 0.0 | 0.0 | 0.00 | 0.00 | 0.00 | 93 | 1016.8 |
| 20260508070455 | 58 | 70 | 0.0 | 1.0 | 0.00 | 0.00 | 0.00 | 94 | 1016.9 |
| 20260508065953 | 58 | 71 | 0.0 | 0.0 | 0.00 | 0.00 | 0.00 | 94 | 1017.3 |
| 20260508065450 | 58 | 71 | 0.0 | 1.0 | 0.00 | 0.00 | 0.00 | 94 | 1017.3 |
| 20260508064949 | 58 | 70 | 0.0 | 1.0 | 0.00 | 0.00 | 0.00 | 94 | 1017.3 |
| 20260508064446 | 58 | 72 | 2.0 | 2.0 | 0.00 | 0.00 | 0.00 | 94 | 1017.0 |
| 20260508063943 | 58 | 73 | 0.0 | 0.0 | 0.00 | 0.00 | 0.00 | 93 | 1017.3 |
| 20260508063440 | 58 | 73 | 0.0 | 0.0 | 0.00 | 0.00 | 0.00 | 93 | 1017.0 |
| 20260508062938 | 58 | 73 | 0.0 | 0.0 | 0.00 | 0.00 | 0.00 | 93 | 1017.2 |
| 20260508062436 | 58 | 73 | 0.0 | 0.0 | 0.00 | 0.00 | 0.00 | 93 | 1017.1 |
| 20260508061932 | 58 | 73 | 0.0 | 0.0 | 0.00 | 0.00 | 0.00 | 93 | 1017.1 |
| 20260508061430 | 58 | 73 | 0.0 | 0.0 | 0.00 | 0.00 | 0.00 | 93 | 1017.0 |
| 20260508060926 | 58 | 73 | 0.0 | 0.0 | 0.00 | 0.00 | 0.00 | 93 | 1017.1 |
| 20260508060424 | 58 | 73 | 0.0 | 0.0 | 0.00 | 0.00 | 0.00 | 92 | 1017.5 |
| 20260508055919 | 58 | 73 | 0.0 | 0.0 | 0.00 | 0.00 | 0.00 | 92 | 1017.3 |
| 20260508055416 | 58 | 73 | 0.0 | 0.0 | 0.00 | 0.00 | 0.00 | 92 | 1017.4 |
| 20260508054913 | 58 | 73 | 1.0 | 1.0 | 0.00 | 0.00 | 0.00 | 92 | 1017.5 |
| 20260508054410 | 58 | 73 | 0.0 | 0.0 | 0.00 | 0.00 | 0.00 | 92 | 1017.5 |
| 20260508053907 | 58 | 73 | 0.0 | 0.0 | 0.00 | 0.00 | 0.00 | 92 | 1017.4 |
| 20260508053404 | 58 | 73 | 0.0 | 0.0 | 0.00 | 0.00 | 0.00 | 91 | 1017.3 |
| 20260508052902 | 59 | 73 | 1.0 | 1.0 | 0.00 | 0.00 | 0.00 | 91 | 1017.3 |
| 20260508052359 | 59 | 73 | 0.0 | 1.0 | 0.00 | 0.00 | 0.00 | 91 | 1017.5 |
| 20260508051855 | 59 | 73 | 0.0 | 1.0 | 0.00 | 0.00 | 0.00 | 91 | 1017.4 |
| 20260508051351 | 59 | 73 | 1.0 | 1.0 | 0.00 | 0.00 | 0.00 | 91 | 1017.5 |
| 20260508050847 | 59 | 73 | 0.0 | 0.0 | 0.00 | 0.00 | 0.00 | 91 | 1017.4 |
| 20260508050344 | 58 | 73 | 1.0 | 1.0 | 0.00 | 0.00 | 0.00 | 91 | 1017.5 |
| 20260508045840 | 58 | 73 | 0.0 | 0.0 | 0.00 | 0.00 | 0.00 | 91 | 1017.5 |
| 20260508045338 | 58 | 73 | 0.0 | 0.0 | 0.00 | 0.00 | 0.00 | 91 | 1017.5 |
| 20260508044836 | 58 | 73 | 0.0 | 0.0 | 0.00 | 0.00 | 0.00 | 91 | 1017.4 |
| 20260508044331 | 58 | 73 | 0.0 | 0.0 | 0.00 | 0.00 | 0.00 | 90 | 1017.2 |
| 20260508043828 | 58 | 73 | 0.0 | 0.0 | 0.00 | 0.00 | 0.00 | 90 | 1017.2 |
| 20260508043325 | 59 | 73 | 0.0 | 0.0 | 0.00 | 0.00 | 0.00 | 90 | 1017.3 |
| 20260508042821 | 59 | 73 | 1.0 | 1.0 | 0.00 | 0.00 | 0.00 | 90 | 1017.2 |
| 20260508042319 | 59 | 73 | 1.0 | 1.0 | 0.00 | 0.00 | 0.00 | 90 | 1017.3 |
| 20260508041816 | 59 | 76 | 0.0 | 1.0 | 0.00 | 0.00 | 0.00 | 90 | 1017.1 |
| 20260508041312 | 59 | 76 | 0.0 | 0.0 | 0.00 | 0.00 | 0.00 | 90 | 1017.0 |
| 20260508040809 | 59 | 76 | 0.0 | 0.0 | 0.00 | 0.00 | 0.00 | 89 | 1017.4 |
| 20260508040307 | 59 | 76 | 0.0 | 0.0 | 0.00 | 0.00 | 0.00 | 89 | 1017.2 |
| 20260508035803 | 59 | 76 | 0.0 | 0.0 | 0.00 | 0.00 | 0.00 | 87 | 1017.5 |
| 20260508035301 | 60 | 76 | 0.0 | 0.0 | 0.00 | 0.00 | 0.00 | 87 | 1017.4 |
| 20260508034757 | 60 | 75 | 1.0 | 1.0 | 0.00 | 0.00 | 0.00 | 87 | 1017.3 |
| 20260508034255 | 60 | 180 | 1.0 | 1.0 | 0.00 | 0.00 | 0.00 | 87 | 1017.4 |
| 20260508033752 | 60 | 182 | 1.0 | 1.0 | 0.00 | 0.00 | 0.00 | 87 | 1017.4 |
| 20260508033250 | 60 | 182 | 0.0 | 0.0 | 0.00 | 0.00 | 0.00 | 87 | 1017.5 |
| 20260508032747 | 60 | 182 | 0.0 | 0.0 | 0.00 | 0.00 | 0.00 | 86 | 1017.2 |
| 20260508032244 | 60 | 182 | 0.0 | 0.0 | 0.00 | 0.00 | 0.00 | 86 | 1017.1 |
| 20260508031741 | 60 | 182 | 0.0 | 0.0 | 0.00 | 0.00 | 0.00 | 86 | 1017.0 |
| 20260508031237 | 60 | 182 | 0.0 | 0.0 | 0.00 | 0.00 | 0.00 | 85 | 1017.1 |
| 20260508030734 | 60 | 182 | 0.0 | 0.0 | 0.00 | 0.00 | 0.00 | 85 | 1017.0 |
| 20260508030231 | 60 | 182 | 0.0 | 0.0 | 0.00 | 0.00 | 0.00 | 85 | 1017.2 |
| 20260508025727 | 60 | 182 | 0.0 | 0.0 | 0.00 | 0.00 | 0.00 | 84 | 1017.2 |
| 20260508025225 | 60 | 182 | 0.0 | 0.0 | 0.00 | 0.00 | 0.00 | 84 | 1017.3 |
| 20260508024720 | 60 | 182 | 0.0 | 0.0 | 0.00 | 0.00 | 0.00 | 83 | 1017.1 |
| 20260508024218 | 61 | 182 | 0.0 | 0.0 | 0.00 | 0.00 | 0.00 | 83 | 1017.0 |
| 20260508023714 | 61 | 182 | 0.0 | 0.0 | 0.00 | 0.00 | 0.00 | 83 | 1016.7 |
| 20260508023212 | 61 | 182 | 0.0 | 0.0 | 0.00 | 0.00 | 0.00 | 83 | 1016.7 |
| 20260508022707 | 61 | 182 | 0.0 | 0.0 | 0.00 | 0.00 | 0.00 | 82 | 1016.9 |
| 20260508022205 | 62 | 182 | 0.0 | 0.0 | 0.00 | 0.00 | 0.00 | 82 | 1016.8 |
| 20260508021701 | 62 | 182 | 0.0 | 0.0 | 0.00 | 0.00 | 0.00 | 81 | 1016.7 |
| 20260508021156 | 62 | 182 | 0.0 | 0.0 | 0.00 | 0.00 | 0.00 | 78 | 1016.8 |
| 20260508020654 | 62 | 182 | 0.0 | 0.0 | 0.00 | 0.00 | 0.00 | 79 | 1016.7 |
| 20260508020151 | 62 | 182 | 0.0 | 0.0 | 0.00 | 0.00 | 0.00 | 79 | 1016.8 |
| 20260508015649 | 63 | 182 | 0.0 | 0.0 | 0.00 | 0.00 | 0.00 | 78 | 1016.9 |
| 20260508015146 | 63 | 182 | 0.0 | 1.0 | 0.00 | 0.00 | 0.00 | 78 | 1016.9 |
| 20260508014642 | 63 | 182 | 0.0 | 0.0 | 0.00 | 0.00 | 0.00 | 78 | 1016.9 |
| 20260508014138 | 63 | 182 | 1.0 | 1.0 | 0.00 | 0.00 | 0.00 | 77 | 1016.6 |
| 20260508013634 | 63 | 182 | 0.0 | 0.0 | 0.00 | 0.00 | 0.00 | 77 | 1016.6 |
| 20260508013131 | 64 | 183 | 1.0 | 2.0 | 0.00 | 0.00 | 0.00 | 77 | 1016.8 |
| 20260508012629 | 64 | 182 | 1.0 | 1.0 | 0.00 | 0.00 | 0.00 | 76 | 1016.7 |
| 20260508012126 | 64 | 182 | 1.0 | 1.0 | 0.00 | 0.00 | 0.00 | 76 | 1016.8 |
| 20260508011624 | 64 | 182 | 1.0 | 1.0 | 0.00 | 0.00 | 0.00 | 76 | 1016.7 |
| 20260508011121 | 64 | 183 | 2.0 | 2.0 | 0.00 | 0.00 | 0.00 | 75 | 1016.7 |
| 20260508010618 | 64 | 185 | 1.0 | 1.0 | 0.00 | 0.00 | 0.00 | 75 | 1016.5 |
| 20260508010116 | 65 | 176 | 2.0 | 2.0 | 0.00 | 0.00 | 0.00 | 74 | 1016.6 |
| 20260508005612 | 65 | 164 | 1.0 | 1.0 | 0.00 | 0.00 | 0.00 | 73 | 1016.7 |
| 20260508005109 | 65 | 160 | 1.0 | 1.0 | 0.00 | 0.00 | 0.00 | 72 | 1016.6 |
| 20260508004605 | 66 | 151 | 2.0 | 2.0 | 0.00 | 0.00 | 0.00 | 71 | 1016.5 |
| 20260508004102 | 66 | 190 | 2.0 | 2.0 | 0.00 | 0.00 | 0.00 | 71 | 1016.8 |
| 20260508003558 | 66 | 174 | 2.0 | 3.0 | 0.00 | 0.00 | 0.00 | 70 | 1016.6 |
| 20260508003056 | 66 | 190 | 3.0 | 3.0 | 0.00 | 0.00 | 0.00 | 70 | 1016.6 |
| 20260508002552 | 66 | 188 | 3.0 | 3.0 | 0.00 | 0.00 | 0.00 | 69 | 1016.8 |
| 20260508002050 | 66 | 182 | 3.0 | 3.0 | 0.00 | 0.00 | 0.00 | 68 | 1016.7 |
| 20260508001545 | 66 | 182 | 4.0 | 6.0 | 0.00 | 0.00 | 0.00 | 68 | 1016.6 |
| 20260508001041 | 67 | 146 | 3.0 | 3.0 | 0.00 | 0.00 | 0.00 | 67 | 1016.6 |
| 20260508000537 | 67 | 155 | 3.0 | 5.0 | 0.00 | 0.00 | 0.00 | 67 | 1016.5 |
| 20260508000035 | 67 | 194 | 4.0 | 5.0 | 0.00 | 0.00 | 0.00 | 67 | 1016.6 |
| 20260507235531 | 67 | 170 | 3.0 | 3.0 | 0.00 | 0.00 | 0.00 | 68 | 1016.5 |
| 20260507235029 | 67 | 190 | 5.0 | 6.0 | 0.00 | 0.00 | 0.00 | 67 | 1016.5 |
| 20260507234525 | 68 | 193 | 6.0 | 7.0 | 0.00 | 0.00 | 0.00 | 66 | 1016.7 |
| 20260507234022 | 68 | 179 | 4.0 | 6.0 | 0.00 | 0.00 | 0.00 | 66 | 1016.7 |
| 20260507233518 | 68 | 176 | 7.0 | 8.0 | 0.00 | 0.00 | 0.00 | 64 | 1016.7 |
| 20260507233017 | 68 | 181 | 7.0 | 8.0 | 0.00 | 0.00 | 0.00 | 64 | 1016.6 |
| 20260507232513 | 69 | 184 | 6.0 | 7.0 | 0.00 | 0.00 | 0.00 | 63 | 1016.7 |
| 20260507232010 | 70 | 188 | 4.0 | 5.0 | 0.00 | 0.00 | 0.00 | 62 | 1016.8 |
| 20260507231507 | 71 | 81 | 0.0 | 0.0 | 0.00 | 0.00 | 0.00 | 54 | 1016.5 |
| 20260507231004 | 71 | 81 | 0.0 | 0.0 | 0.00 | 0.00 | 0.00 | 51 | 1016.3 |
| 20260507230501 | 71 | 81 | 1.0 | 1.0 | 0.00 | 0.00 | 0.00 | 49 | 1016.6 |
| 20260507225956 | 71 | 81 | 0.0 | 0.0 | 0.00 | 0.00 | 0.00 | 53 | 1016.8 |
| 20260507225452 | 71 | 81 | 1.0 | 1.0 | 0.00 | 0.00 | 0.00 | 56 | 1016.6 |
| 20260507224949 | 71 | 82 | 2.0 | 2.0 | 0.00 | 0.00 | 0.00 | 49 | 1016.9 |
| 20260507224444 | 71 | 97 | 3.0 | 3.0 | 0.00 | 0.00 | 0.00 | 49 | 1016.7 |
| 20260507223941 | 71 | 90 | 2.0 | 2.0 | 0.00 | 0.00 | 0.00 | 48 | 1016.8 |
| 20260507223437 | 71 | 76 | 1.0 | 1.0 | 0.00 | 0.00 | 0.00 | 49 | 1016.7 |
| 20260507222935 | 71 | 66 | 3.0 | 3.0 | 0.00 | 0.00 | 0.00 | 51 | 1016.8 |
| 20260507222432 | 72 | 80 | 3.0 | 5.0 | 0.00 | 0.00 | 0.00 | 48 | 1016.8 |
| 20260507221928 | 72 | 60 | 2.0 | 2.0 | 0.00 | 0.00 | 0.00 | 51 | 1017.0 |
| 20260507221425 | 72 | 55 | 2.0 | 2.0 | 0.00 | 0.00 | 0.00 | 52 | 1016.9 |
| 20260507220920 | 72 | 70 | 3.0 | 3.0 | 0.00 | 0.00 | 0.00 | 50 | 1016.6 |
| 20260507220419 | 73 | 67 | 3.0 | 3.0 | 0.00 | 0.00 | 0.00 | 49 | 1016.8 |
| 20260507215915 | 73 | 92 | 2.0 | 2.0 | 0.00 | 0.00 | 0.00 | 51 | 1016.9 |
| 20260507215412 | 73 | 76 | 1.0 | 2.0 | 0.00 | 0.00 | 0.00 | 47 | 1016.9 |
| 20260507214909 | 73 | 94 | 1.0 | 1.0 | 0.00 | 0.00 | 0.00 | 44 | 1017.0 |
| 20260507214407 | 73 | 72 | 0.0 | 0.0 | 0.00 | 0.00 | 0.00 | 48 | 1016.9 |
| 20260507213902 | 73 | 37 | 1.0 | 1.0 | 0.00 | 0.00 | 0.00 | 47 | 1016.9 |
| 20260507213359 | 74 | 329 | 2.0 | 2.0 | 0.00 | 0.00 | 0.00 | 46 | 1016.9 |
| 20260507212856 | 73 | 29 | 1.0 | 2.0 | 0.00 | 0.00 | 0.00 | 49 | 1017.2 |
| 20260507212352 | 74 | 32 | 3.0 | 5.0 | 0.00 | 0.00 | 0.00 | 49 | 1017.2 |
| 20260507211848 | 74 | 37 | 3.0 | 5.0 | 0.00 | 0.00 | 0.00 | 49 | 1017.2 |
| 20260507211345 | 74 | 65 | 2.0 | 2.0 | 0.00 | 0.00 | 0.00 | 46 | 1017.1 |
| 20260507210842 | 73 | 321 | 4.0 | 5.0 | 0.00 | 0.00 | 0.00 | 47 | 1017.4 |
| 20260507210339 | 73 | 103 | 2.0 | 3.0 | 0.00 | 0.00 | 0.00 | 46 | 1017.0 |
| 20260507205835 | 73 | 114 | 4.0 | 5.0 | 0.00 | 0.00 | 0.00 | 49 | 1017.2 |
| 20260507205332 | 73 | 73 | 4.0 | 5.0 | 0.00 | 0.00 | 0.00 | 50 | 1017.1 |
| 20260507204828 | 73 | 63 | 2.0 | 3.0 | 0.00 | 0.00 | 0.00 | 49 | 1017.2 |
| 20260507204326 | 73 | 85 | 5.0 | 5.0 | 0.00 | 0.00 | 0.00 | 48 | 1017.5 |
| 20260507203824 | 73 | 90 | 1.0 | 2.0 | 0.00 | 0.00 | 0.00 | 50 | 1017.3 |
| 20260507203321 | 74 | 37 | 4.0 | 5.0 | 0.00 | 0.00 | 0.00 | 49 | 1017.7 |
| 20260507202817 | 74 | 47 | 3.0 | 3.0 | 0.00 | 0.00 | 0.00 | 49 | 1017.7 |
| 20260507202314 | 74 | 240 | 2.0 | 2.0 | 0.00 | 0.00 | 0.00 | 44 | 1017.5 |
| 20260507201809 | 74 | 41 | 3.0 | 5.0 | 0.00 | 0.00 | 0.00 | 49 | 1017.4 |
| 20260507201305 | 75 | 69 | 4.0 | 5.0 | 0.00 | 0.00 | 0.00 | 46 | 1017.6 |
| 20260507200802 | 74 | 133 | 0.0 | 0.0 | 0.00 | 0.00 | 0.00 | 45 | 1017.5 |
| 20260507200257 | 73 | 53 | 1.0 | 1.0 | 0.00 | 0.00 | 0.00 | 51 | 1017.6 |
| 20260507195754 | 73 | 62 | 3.0 | 5.0 | 0.00 | 0.00 | 0.00 | 47 | 1017.7 |
| 20260507195251 | 73 | 53 | 4.0 | 6.0 | 0.00 | 0.00 | 0.00 | 50 | 1017.9 |
| 20260507194749 | 74 | 62 | 4.0 | 6.0 | 0.00 | 0.00 | 0.00 | 49 | 1017.8 |
| 20260507194244 | 73 | 87 | 1.0 | 1.0 | 0.00 | 0.00 | 0.00 | 51 | 1018.1 |
| 20260507193741 | 73 | 43 | 3.0 | 3.0 | 0.00 | 0.00 | 0.00 | 51 | 1018.1 |
| 20260507193238 | 73 | 75 | 6.0 | 7.0 | 0.00 | 0.00 | 0.00 | 48 | 1018.0 |
| 20260507192734 | 73 | 13 | 4.0 | 6.0 | 0.00 | 0.00 | 0.00 | 53 | 1018.1 |